Regional Weather Roundup
Issued by NWS Wakefield, VA

Home | Current Version | Previous Version | Text Only | Print | Product List | Glossary On
Versions: 1 2 3 4 5 6 7 8 9 10 11 12 13 14 15 16 17 18 19 20 21 22 23 24 25 26 27 28 29 30 31 32 33 34 35 36 37 38 39 40 41 42 43 44 45 46 47 48 49 50
000
ASUS41 KAKQ 292014
RWRAKQ

REGIONAL WEATHER ROUNDUP
NATIONAL WEATHER SERVICE WAKEFIELD VA
400 PM EDT SUN MAR 29 2015

Note: "fair" indicates few or no clouds below 12,000 feet with no
significant weather and/or obstructions to visibility. * = Denotes
station may not report precipitation (e.g., rain,snow,etc.),
thunder or fog.

VAZ042-051-052>054-056-292100-
NORTHERN VIRGINIA

CITY           SKY/WX    TMP DP  RH WIND       PRES   REMARKS
WASH NATIONAL  MOSUNNY   47   8  20 CALM      30.29F
DULLES         MOSUNNY   44   5  20 VRB3      30.27F
FORT BELVOIR   SUNNY     44   6  20 W5        30.28F
QUANTICO       SUNNY     44  15  31 SE9       30.30F
FREDERICKSBRG* SUNNY     47   5  17 CALM      30.28F
STAFFORD*      SUNNY     45  -2  14 W3        30.31F
WARRENTON      SUNNY     48  15  27 W3        30.27F
CULPEPER*      SUNNY     46   3  17 W3        30.28F
MANASSAS*      SUNNY     45   1  16 CALM      30.29F
LEESBURG*      SUNNY     45  12  26 CALM      30.28F
WINCHESTER     SUNNY     46 -18   6 SW7       30.24F
FRONT ROYAL*   FAIR      46   3  17 S5        30.23F
LURAY*         FAIR      48  10  21 S6        30.24F
$$

VAZ048-049-060>072-079>083-292100-
CENTRAL AND SOUTH CENTRAL VIRGINIA

CITY           SKY/WX    TMP DP  RH WIND       PRES   REMARKS
RICHMOND       MOSUNNY   48   2  15 NW8       30.30F
CHESTERFIELD*  NOT AVBL
PETERSBURG*    SUNNY     49   2  14 SW9       30.31F
HANOVER        SUNNY     47   4  17 VRB5      30.30F
TAPPAHANNOCK*  SUNNY     46  -5  12 NW7       30.31F
QUINTON*       FAIR      46   7  19 NW6       30.31F
CHARLOTTSVILLE SUNNY     47   2  15 CALM      30.25F
GORDONSVILLE*  FAIR      46   3  17 CALM      30.26F
ORANGE*        SUNNY     46   9  21 W7        30.29F
LOUISA*        SUNNY     46   5  18 SE6       30.26F
BUMPASS*       FAIR      45   4  18 SE5       30.28F
FARMVILLE*     SUNNY     49   2  14 E3        30.26F
CREWE*         FAIR      47   0  13 MISG      30.28F
FORT PICKETT*  FAIR      46   3  16 S6        30.29F
CHASE CITY*    FAIR      49  10  20 SW5       30.29F
CLARKSVILLE*   FAIR      46   9  21 CALM      30.30F
SOUTH HILL*    SUNNY     46   6  19 CALM      30.36F
LAWRENCEVILLE* FAIR      47   7  20 CALM      30.30F
EMPORIA*       SUNNY     45  12  26 SE3       30.34F
$$

VAZ088>098-292100-
SOUTHEAST VIRGINIA

CITY           SKY/WX    TMP DP  RH WIND       PRES   REMARKS
NORFOLK        SUNNY     43   5  20 VRB5      30.33F
VIRGINIA BEACH SUNNY     46  14  27 N9        30.32F
NORFOLK NAVAL  MOSUNNY   48   8  19 NW15      30.34F
WEST POINT*    SUNNY     47  -3  12 W3        30.34F
SALUDA*        FAIR      43  11  27 N7        30.31F
NEWPORT NEWS   NOT AVBL
LANGLEY AFB    SUNNY     45  10  23 W10G17    30.31F
FORT EUSTIS    SUNNY     45  14  28 NW10      30.30F
WILLIAMSBURG*  SUNNY     48  14  25 W8        30.33F
HR EXEC AP*    FAIR      46  10  23 W5        30.34F
FRANKLIN*      SUNNY     46  10  23 NW8       30.34F
WAKEFIELD      SUNNY     47   6  18 VRB3      30.32F
$$

VAZ020-022-025-037-045-292100-
WEST CENTRAL AND SOUTHWEST VIRGINIA

CITY           SKY/WX    TMP DP  RH WIND       PRES   REMARKS
STAUNTON*      SUNNY     47   7  19 S6        30.25F
WAYNESBORO*    FAIR      45   3  17 NW3       30.22F
HOT SPRINGS VA SUNNY     39  -5  15 W9        30.14F
LYNCHBURG      SUNNY     46   5  18 SW9       30.27F
DANVILLE       SUNNY     50   6  16 SW6       30.29F
SOUTH BOSTON*  FAIR      49  -5  10 SE3       30.28F
MARTINSVILLE   SUNNY     54   6  15 SW8       30.29F
ROANOKE        MOSUNNY   49   5  16 S10       30.26F
BLACKSBURG     MOSUNNY   46   2  16 W7        30.25S
DUBLIN*        MOSUNNY   49   5  16 SW5       30.23F
MARION*        SUNNY     51  -6   9 SW12      30.23F
HILLSVILLE*    SUNNY     47   6  18 SW12      30.20S
RICHLANDS*     FAIR      48   0  13 SW8       30.20F
WISE*          SUNNY     50   1  13 W8G18     30.21F
ABINGDON*      SUNNY     53  -4   9 W14       30.23F
$$

MDZ021>025-VAZ099-100-292100-
SOUTHERN MARYLAND AND THE DELMARVA PENINSULA

CITY           SKY/WX    TMP DP  RH WIND       PRES   REMARKS
PATUXENT RIVER SUNNY     40  15  36 E9        30.30F
BAY BRIDGE APT   N/A     41   9  26 W3        30.29F
LEONARDTOWN    SUNNY     41   9  26 W9G17     30.31F
DOVER          SUNNY     43  12  28 W10       30.22F
GEORGETOWN     SUNNY     42   8  24 W14       30.28F
EASTON         SUNNY     43  12  28 W12G23    30.33F
CAMBRIDGE      SUNNY     41   9  26 W7        30.30F
SALISBURY      SUNNY     43  14  31 NW13G21   30.29F
OCEAN CITY     SUNNY     43  11  27 NW8G16    30.28F
WALLOPS ISLAND SUNNY     42  12  29 NW12G22   30.30F
ACCOMACK*      SUNNY     41  10  28 NW15G21   30.32F
$$

NCZ012>017-030>032-292100-
NORTH CENTRAL AND EASTERN NORTH CAROLINA

CITY           SKY/WX    TMP DP  RH WIND       PRES   REMARKS
ROANOKE RAPIDS FAIR      45  12  26 CALM      30.33F
RALEIGH        MOSUNNY   51  11  20 VRB5      30.32F
ELIZABETH CITY SUNNY     45  11  25 NW9       30.33F
AHOSKIE*       SUNNY     46  13  26 W5        30.34F
EDENTON*       SUNNY     46  12  25 NW7       30.34F
CURRITUCK*     SUNNY     45   7  21 NW3       30.33F
KILL DEVIL HLS SUNNY     40  19  42 NE6       30.33F
MANTEO         SUNNY     41  15  35 N6        30.34F
CAPE HATTERAS  SUNNY     44  12  27 N8        30.34F
TARBORO*       FAIR      49  11  21 W6        30.35F
GOLDSBORO      SUNNY     49  15  25 N6        30.33F
WASHINGTON     SUNNY     46  12  25 N12       30.34F
GREENVILLE     SUNNY     48  12  23 N5        30.35S
NEW BERN       SUNNY     48  12  23 N6        30.35F
WILMINGTON     SUNNY     51  13  21 CALM      30.35F
$$

VAZ048-292100-
ELSEWHERE

CITY           SKY/WX    TMP DP  RH WIND       PRES   REMARKS
HARRISBURG PA  MOSUNNY   45   4  18 W6        30.22F
BALTIMORE      MOSUNNY   44   6  21 NW6       30.26F
ANNAPOLIS      SUNNY     39  19  44 SE13      30.28F
ANDREWS AFB    SUNNY     43   8  23 NW7       30.27F
PHILADELPHIA   SUNNY     44   5  20 NW9       30.24F
HENDERSON NC   SUNNY     48   1  14 NW7       30.30F
GREENSBORO     PTSUNNY   49   5  16 S8        30.28F
ROCKY MOUNT    SUNNY     49  13  23 VRB3      30.34F
$$

VAZ100-292100-
MARINE

STATION/POSITION TIME  TEMP    WIND        PRES    WAVE   SWELL
                       AIR SEA DIR/SP/G            HT/PER HT/PER
                 (UTC) (F)     (DEG/KT/KT) (MB)    (FT/S) (FT/S)
BRANDYWINE LGT   1900   36 40  330/  8/  9 1025.5F
CAPE MAY NJ      1900   38 43  300/ 14/ 18 1024.9F
LEWES DE         1900   36 42   10/ 10/ 12 1025.5F
15NM E FENWICK I 1950   36 39              1024.9F   4/ 9
OCEAN-CITY-INLET 1900   39 40  350/  3/  6 1025.2F
WACHAPREAGUE VA  1900   38 44  270/ 10/ 15 1026.9F
THOMAS POINT MD  2000                        N/A
COVE POINT MD    1900   34      30/  6/  7 1027.0F
SOLOMONS ISLAND  1900      43                N/A
BISHOPS HEAD MD  1900   36 41  290/ 13/ 16 1026.6F
PINEY POINT MD   1900          310/ 15/ 16   N/A
CAMBRIDGE MD     1900   38 42  280/ 10/ 16 1026.9F
LEWISETTA VA     1900   39 44              1027.2F
RAPPAHANNOCK LGT 1900          350/  6/  8 1027.8F
STINGRAY PT      2000   41 45  320/ 10/ 14   N/A
YORK RVR RNG VA  1900          120/  5/  6   N/A
YORKTOWN VA      1900          330/  8/  9   N/A
DOMINION TERM VA 1900   39     320/ 10/ 13 1027.3F
KIPTOPEKE VA     1900      47  300/  5/  7   N/A
CHES BAY BRIDGE  1900   38 45  300/  6/  7 1027.2F
CAPE HENRY VA    1900   37     310/  8/ 10 1026.1F
CHESAPEAKE LGHT  1900   36     300/ 11/ 12 1028.2F
WILLOUBY STN VA  1900   39     270/ 11/ 13 1027.5F
S CRANEY ISL VA  1900          320/  8/ 11   N/A
CAPE HENRY BUOY  1958      40                N/A     3/ 6
1ST LANDING BUOY 2000   39     270/  8/ 12 1026.9F   1/ 3
OFFSHORE WE BUOY 1911      40                N/A     5/ 6   3/ 6
64NM E OF VA BCH 1950   36 54  330/ 19/ 25 1026.1F   5/ 6   2/ 8
DUCK PIER NC     1900           20/ 11/ 13   N/A
44056 DUCK FRF   1911      42                N/A     4/ 6
OREGON INLET NC  1900   37 44   10/ 11/ 14 1028.0F
HATTERAS NC      1900   40 48  340/ 12/ 15 1028.3F
CAPE LOOKOUT NC  2000   45     320/  6/  7 1027.0F
$$



USA.gov is the U.S. government's official web portal to all federal, state and local government web resources and services.